SAS4467 ENVA-ENZV

Flight info

Callsign SAS4467
Flight time 0h 58m
Altitude 36000
Route OSMUM DCT ROPNO
Aircraft A20N/M-SDE2E3FGHIRWXY/LB1

Departure

Time 2026-04-24 11:03
Airport Trondheim Airport, Værnes (ENVA)

Arrival

Time 2026-04-24 12:01
Airport Stavanger Airport, Sola (ENZV)
Time Latitude Longitude Altitude Speed Heading
2026-04-24 10:43 63.45504 10.91738 48 ft 0 kts 181°
2026-04-24 10:55 63.45505 10.91738 48 ft 1 kts 181°
2026-04-24 10:56 63.45510 10.91738 48 ft 1 kts 181°
2026-04-24 10:56 63.45516 10.91738 48 ft 1 kts 179°
2026-04-24 10:56 63.45526 10.91737 47 ft 2 kts 179°
2026-04-24 10:56 63.45536 10.91737 47 ft 2 kts 176°
2026-04-24 10:57 63.45563 10.91726 46 ft 8 kts 162°
2026-04-24 10:57 63.45581 10.91711 47 ft 2 kts 145°
2026-04-24 10:57 63.45591 10.91691 44 ft 2 kts 123°
2026-04-24 10:57 63.45594 10.91683 45 ft 0 kts 116°
2026-04-24 10:59 63.45594 10.91686 45 ft 0 kts 104°
2026-04-24 10:59 63.45596 10.91773 46 ft 14 kts 90°
2026-04-24 10:59 63.45595 10.92089 50 ft 26 kts 90°
2026-04-24 10:59 63.45595 10.92549 49 ft 32 kts 90°
2026-04-24 11:00 63.45594 10.93066 54 ft 34 kts 91°
2026-04-24 11:00 63.45593 10.93472 57 ft 22 kts 90°
2026-04-24 11:00 63.45603 10.93818 61 ft 23 kts 68°
2026-04-24 11:00 63.45644 10.93938 63 ft 0 kts 44°
2026-04-24 11:01 63.45647 10.93946 63 ft 4 kts 44°
2026-04-24 11:01 63.45690 10.94037 60 ft 13 kts 44°
2026-04-24 11:01 63.45760 10.94012 83 ft 12 kts 272°
2026-04-24 11:01 63.45756 10.93798 63 ft 0 kts 270°
2026-04-24 11:02 63.45757 10.93727 62 ft 27 kts 271°
2026-04-24 11:02 63.45759 10.92766 55 ft 94 kts 270°
2026-04-24 11:02 63.45758 10.90973 209 ft 127 kts 271°
2026-04-24 11:03 63.45740 10.88878 607 ft 142 kts 270°
2026-04-24 11:03 63.45721 10.86621 1201 ft 142 kts 270°
2026-04-24 11:03 63.45735 10.84515 2029 ft 139 kts 272°
2026-04-24 11:03 63.45762 10.82225 2501 ft 153 kts 272°
2026-04-24 11:04 63.45800 10.79868 3294 ft 153 kts 272°
2026-04-24 11:04 63.45845 10.77492 4299 ft 152 kts 273°
2026-04-24 11:04 63.45892 10.75187 5381 ft 148 kts 274°
2026-04-24 11:04 63.45946 10.72811 6122 ft 159 kts 276°
2026-04-24 11:05 63.46013 10.70245 6832 ft 170 kts 276°
2026-04-24 11:05 63.46091 10.67599 7698 ft 171 kts 277°
2026-04-24 11:05 63.46150 10.64938 8603 ft 173 kts 274°
2026-04-24 11:05 63.46086 10.62191 9396 ft 182 kts 269°
2026-04-24 11:06 63.45898 10.59301 10105 ft 195 kts 264°
2026-04-24 11:06 63.45258 10.56483 10713 ft 221 kts 232°
2026-04-24 11:06 63.43823 10.54705 11175 ft 257 kts 198°
2026-04-24 11:06 63.41937 10.54514 11679 ft 282 kts 186°
2026-04-24 11:07 63.37905 10.53373 12813 ft 305 kts 206°
2026-04-24 11:07 63.35962 10.51266 13289 ft 320 kts 213°
2026-04-24 11:07 63.33834 10.49154 13526 ft 349 kts 206°
2026-04-24 11:08 63.31508 10.47265 14122 ft 360 kts 204°
2026-04-24 11:08 63.29133 10.45395 14939 ft 363 kts 205°
2026-04-24 11:08 63.26742 10.43462 15757 ft 367 kts 205°
2026-04-24 11:08 63.24342 10.41461 16563 ft 370 kts 205°
2026-04-24 11:09 63.21921 10.39406 17311 ft 375 kts 206°
2026-04-24 11:09 63.19475 10.37310 18090 ft 379 kts 205°
2026-04-24 11:09 63.17003 10.35192 18803 ft 383 kts 205°
2026-04-24 11:09 63.14506 10.33057 19466 ft 386 kts 205°
2026-04-24 11:10 63.11985 10.30908 20128 ft 390 kts 205°
2026-04-24 11:10 63.10299 10.29472 20546 ft 393 kts 205°
2026-04-24 11:10 63.07735 10.27291 21190 ft 397 kts 205°
2026-04-24 11:10 63.05139 10.25087 21757 ft 402 kts 205°
2026-04-24 11:11 63.02503 10.22852 22322 ft 408 kts 205°
2026-04-24 11:11 62.99846 10.20606 22944 ft 411 kts 205°
2026-04-24 11:11 62.96277 10.17597 23708 ft 418 kts 205°
2026-04-24 11:11 62.94429 10.16041 24040 ft 420 kts 205°
2026-04-24 11:12 62.91693 10.13741 24572 ft 423 kts 205°
2026-04-24 11:12 62.88933 10.11422 25075 ft 426 kts 205°
2026-04-24 11:12 62.86154 10.09093 25568 ft 430 kts 205°
2026-04-24 11:12 62.83407 10.06702 26053 ft 431 kts 208°
2026-04-24 11:13 62.80683 10.03902 26505 ft 434 kts 209°
2026-04-24 11:13 62.77909 10.01023 26975 ft 438 kts 209°
2026-04-24 11:13 62.75177 9.98180 27300 ft 444 kts 208°
2026-04-24 11:13 62.72370 9.95268 27749 ft 447 kts 208°
2026-04-24 11:14 62.69549 9.92354 28198 ft 449 kts 207°
2026-04-24 11:14 62.66715 9.89435 28621 ft 452 kts 207°
2026-04-24 11:14 62.63862 9.86502 28998 ft 455 kts 207°
2026-04-24 11:14 62.60980 9.83549 29388 ft 458 kts 207°
2026-04-24 11:15 62.58086 9.80592 29747 ft 462 kts 207°
2026-04-24 11:15 62.55162 9.77611 30146 ft 465 kts 207°
2026-04-24 11:15 62.52223 9.74623 30495 ft 467 kts 207°
2026-04-24 11:15 62.49314 9.71673 30819 ft 470 kts 207°
2026-04-24 11:16 62.46347 9.68665 31135 ft 473 kts 206°
2026-04-24 11:16 62.43367 9.65653 31562 ft 472 kts 206°
2026-04-24 11:16 62.40389 9.62654 32055 ft 470 kts 206°
2026-04-24 11:16 62.37427 9.59677 32535 ft 469 kts 206°
2026-04-24 11:17 62.34466 9.56708 33029 ft 467 kts 206°
2026-04-24 11:17 62.31522 9.53761 33477 ft 465 kts 206°
2026-04-24 11:17 62.28592 9.50835 33925 ft 464 kts 206°
2026-04-24 11:17 62.25665 9.47918 34293 ft 462 kts 206°
2026-04-24 11:18 62.22749 9.45022 34632 ft 461 kts 207°
2026-04-24 11:18 62.19836 9.42134 34905 ft 462 kts 207°
2026-04-24 11:18 62.16908 9.39243 35089 ft 465 kts 207°
2026-04-24 11:18 62.13971 9.36344 35391 ft 464 kts 207°
2026-04-24 11:19 62.11075 9.33488 35663 ft 465 kts 208°
2026-04-24 11:19 62.08139 9.30601 35965 ft 463 kts 207°
2026-04-24 11:19 62.05211 9.27730 36066 ft 461 kts 208°
2026-04-24 11:19 62.02299 9.24876 36077 ft 461 kts 208°
2026-04-24 11:20 61.96468 9.19175 36075 ft 460 kts 208°
2026-04-24 11:20 61.90636 9.13503 36071 ft 462 kts 207°
2026-04-24 11:21 61.84781 9.07831 36070 ft 462 kts 207°
2026-04-24 11:21 61.78961 9.02217 36068 ft 462 kts 207°
2026-04-24 11:22 61.73112 8.96598 36071 ft 462 kts 207°
2026-04-24 11:22 61.67256 8.90996 36069 ft 462 kts 207°
2026-04-24 11:23 61.61396 8.85415 36050 ft 462 kts 208°
2026-04-24 11:23 61.55537 8.79858 36057 ft 462 kts 208°
2026-04-24 11:24 61.49667 8.74311 36085 ft 462 kts 208°
2026-04-24 11:24 61.43797 8.68789 36089 ft 463 kts 207°
2026-04-24 11:25 61.37950 8.63311 36095 ft 464 kts 207°
2026-04-24 11:25 61.32058 8.57814 36101 ft 464 kts 207°
2026-04-24 11:26 61.26146 8.52321 36112 ft 465 kts 207°
2026-04-24 11:26 61.20235 8.46852 36114 ft 465 kts 207°
2026-04-24 11:27 61.14324 8.41405 36112 ft 465 kts 207°
2026-04-24 11:27 61.08395 8.35962 36115 ft 465 kts 207°
2026-04-24 11:28 61.02508 8.30582 36094 ft 466 kts 208°
2026-04-24 11:28 60.96572 8.25181 36122 ft 466 kts 208°
2026-04-24 11:29 60.90631 8.19794 36134 ft 467 kts 208°
2026-04-24 11:29 60.84671 8.14412 36133 ft 468 kts 208°
2026-04-24 11:30 60.78700 8.09045 36133 ft 469 kts 208°
2026-04-24 11:30 60.72721 8.03693 36147 ft 469 kts 208°
2026-04-24 11:31 60.66726 7.98345 36142 ft 469 kts 208°
2026-04-24 11:31 60.60735 7.93023 36153 ft 470 kts 208°
2026-04-24 11:32 60.54747 7.87729 36142 ft 467 kts 208°
2026-04-24 11:32 60.48786 7.82481 36162 ft 465 kts 208°
2026-04-24 11:33 60.42874 7.77291 35881 ft 466 kts 208°
2026-04-24 11:33 60.39895 7.74684 35629 ft 466 kts 208°
2026-04-24 11:33 60.36918 7.72085 35387 ft 466 kts 208°
2026-04-24 11:34 60.33935 7.69485 35145 ft 468 kts 208°
2026-04-24 11:34 60.30944 7.66884 34907 ft 468 kts 209°
2026-04-24 11:34 60.27940 7.64278 34659 ft 469 kts 209°
2026-04-24 11:34 60.24942 7.61682 34432 ft 470 kts 209°
2026-04-24 11:35 60.21939 7.59091 34168 ft 468 kts 209°
2026-04-24 11:35 60.18953 7.56522 33903 ft 466 kts 210°
2026-04-24 11:35 60.15968 7.53952 33630 ft 468 kts 210°
2026-04-24 11:35 60.12972 7.51374 33359 ft 469 kts 210°
2026-04-24 11:36 60.09962 7.48791 33089 ft 470 kts 210°
2026-04-24 11:36 60.06944 7.46208 32823 ft 471 kts 210°
2026-04-24 11:36 60.03967 7.43666 32575 ft 472 kts 210°
2026-04-24 11:36 60.00939 7.41084 32320 ft 473 kts 210°
2026-04-24 11:37 59.97908 7.38506 32028 ft 474 kts 210°
2026-04-24 11:37 59.94861 7.35923 31536 ft 474 kts 210°
2026-04-24 11:37 59.91833 7.33366 31172 ft 471 kts 211°
2026-04-24 11:37 59.88808 7.30811 30923 ft 474 kts 211°
2026-04-24 11:38 59.85765 7.28242 30677 ft 474 kts 211°
2026-04-24 11:38 59.82730 7.25689 30432 ft 472 kts 211°
2026-04-24 11:38 59.79711 7.23153 30109 ft 470 kts 210°
2026-04-24 11:38 59.76719 7.20642 29565 ft 463 kts 210°
2026-04-24 11:39 59.73782 7.18186 28969 ft 456 kts 210°
2026-04-24 11:39 59.70882 7.15760 28392 ft 449 kts 210°
2026-04-24 11:39 59.68055 7.13400 27784 ft 444 kts 210°
2026-04-24 11:39 59.65222 7.11040 27229 ft 438 kts 210°
2026-04-24 11:40 59.62415 7.08703 26664 ft 434 kts 210°
2026-04-24 11:40 59.59638 7.06396 26093 ft 430 kts 210°
2026-04-24 11:40 59.56885 7.04112 25526 ft 426 kts 210°
2026-04-24 11:40 59.54190 7.01880 24983 ft 424 kts 210°
2026-04-24 11:41 59.51485 6.99644 24403 ft 421 kts 210°
2026-04-24 11:41 59.48782 6.97413 23852 ft 419 kts 210°
2026-04-24 11:41 59.46101 6.95204 23245 ft 416 kts 210°
2026-04-24 11:41 59.43447 6.93022 22689 ft 411 kts 210°
2026-04-24 11:42 59.40814 6.90862 22113 ft 407 kts 210°
2026-04-24 11:42 59.38218 6.88735 21581 ft 402 kts 210°
2026-04-24 11:42 59.35648 6.86611 21015 ft 398 kts 212°
2026-04-24 11:42 59.33296 6.83939 20464 ft 385 kts 224°
2026-04-24 11:43 59.31311 6.80574 19926 ft 372 kts 234°
2026-04-24 11:43 59.29632 6.76776 19401 ft 366 kts 238°
2026-04-24 11:43 59.28023 6.73016 18901 ft 363 kts 237°
2026-04-24 11:43 59.26399 6.69237 18374 ft 362 kts 237°
2026-04-24 11:44 59.24784 6.65498 17838 ft 358 kts 237°
2026-04-24 11:44 59.23170 6.61806 17333 ft 356 kts 234°
2026-04-24 11:44 59.21168 6.58746 17024 ft 379 kts 219°
2026-04-24 11:44 59.18903 6.56010 16761 ft 383 kts 218°
2026-04-24 11:45 59.16632 6.53326 16493 ft 379 kts 217°
2026-04-24 11:45 59.14383 6.50687 16209 ft 375 kts 217°
2026-04-24 11:45 59.12156 6.48074 15959 ft 372 kts 217°
2026-04-24 11:45 59.09989 6.45539 15865 ft 363 kts 217°
2026-04-24 11:46 59.07819 6.43153 15721 ft 356 kts 212°
2026-04-24 11:46 59.05515 6.41053 15477 ft 375 kts 210°
2026-04-24 11:46 59.03124 6.38959 15236 ft 377 kts 210°
2026-04-24 11:46 59.00746 6.36879 14996 ft 373 kts 210°
2026-04-24 11:47 58.98386 6.34806 14753 ft 371 kts 210°
2026-04-24 11:47 58.96035 6.32735 14328 ft 372 kts 210°
2026-04-24 11:47 58.93653 6.30654 13368 ft 376 kts 209°
2026-04-24 11:47 58.91306 6.28593 12559 ft 371 kts 210°
2026-04-24 11:48 58.88966 6.26530 12107 ft 358 kts 210°
2026-04-24 11:48 58.86748 6.24575 11825 ft 353 kts 210°
2026-04-24 11:48 58.84520 6.22613 11576 ft 349 kts 210°
2026-04-24 11:48 58.82308 6.20669 11279 ft 349 kts 210°
2026-04-24 11:49 58.80101 6.18734 10785 ft 348 kts 210°
2026-04-24 11:49 58.77914 6.16822 10502 ft 339 kts 210°
2026-04-24 11:49 58.75806 6.15004 10371 ft 325 kts 210°
2026-04-24 11:49 58.73786 6.13263 10244 ft 312 kts 210°
2026-04-24 11:50 58.71843 6.11579 10012 ft 303 kts 210°
2026-04-24 11:50 58.69941 6.09921 9682 ft 298 kts 210°
2026-04-24 11:50 58.68054 6.08267 9229 ft 298 kts 210°
2026-04-24 11:50 58.66167 6.06625 8546 ft 298 kts 211°
2026-04-24 11:51 58.64289 6.04994 8036 ft 292 kts 210°
2026-04-24 11:51 58.62456 6.03426 7877 ft 290 kts 211°
2026-04-24 11:51 58.60657 6.01576 7580 ft 292 kts 221°
2026-04-24 11:51 58.59186 5.99081 7277 ft 280 kts 234°
2026-04-24 11:52 58.57926 5.96243 6690 ft 279 kts 235°
2026-04-24 11:52 58.56781 5.93268 6007 ft 275 kts 246°
2026-04-24 11:52 58.55986 5.89985 5508 ft 268 kts 258°
2026-04-24 11:52 58.55582 5.86591 5142 ft 255 kts 277°
2026-04-24 11:53 58.56017 5.83466 4931 ft 239 kts 305°
2026-04-24 11:53 58.57213 5.81264 4811 ft 239 kts 331°
2026-04-24 11:53 58.58740 5.80093 4503 ft 236 kts 345°
2026-04-24 11:53 58.60341 5.79486 4188 ft 234 kts 350°
2026-04-24 11:54 58.61948 5.79092 3849 ft 232 kts 352°
2026-04-24 11:54 58.63525 5.78748 3710 ft 222 kts 352°
2026-04-24 11:54 58.65005 5.78412 3554 ft 212 kts 352°
2026-04-24 11:54 58.66416 5.78070 3365 ft 197 kts 352°
2026-04-24 11:55 58.67753 5.77727 3216 ft 196 kts 351°
2026-04-24 11:55 58.69130 5.77364 3070 ft 200 kts 351°
2026-04-24 11:55 58.70418 5.76474 2939 ft 198 kts 327°
2026-04-24 11:55 58.71318 5.74463 2800 ft 202 kts 301°
2026-04-24 11:56 58.71741 5.72055 3229 ft 173 kts 296°
2026-04-24 11:56 58.72125 5.69854 3599 ft 175 kts 296°
2026-04-24 11:56 58.72523 5.67697 3765 ft 161 kts 300°
2026-04-24 11:56 58.72959 5.65935 3874 ft 141 kts 312°
2026-04-24 11:57 58.73751 5.64702 3740 ft 145 kts 338°
2026-04-24 11:57 58.74695 5.64251 3594 ft 136 kts 351°
2026-04-24 11:57 58.75612 5.64139 3409 ft 129 kts 356°
2026-04-24 11:57 58.76518 5.64160 3145 ft 132 kts 359°
2026-04-24 11:58 58.77128 5.64221 2931 ft 133 kts 360°
2026-04-24 11:58 58.78066 5.64249 2615 ft 135 kts 356°
2026-04-24 11:58 58.79004 5.64133 2309 ft 131 kts 353°
2026-04-24 11:58 58.79866 5.64025 2090 ft 117 kts 355°
2026-04-24 11:59 58.80648 5.63975 1781 ft 108 kts 355°
2026-04-24 11:59 58.81383 5.63946 1414 ft 104 kts 355°
2026-04-24 11:59 58.82132 5.63911 1168 ft 113 kts 355°
2026-04-24 11:59 58.82918 5.63898 959 ft 110 kts 354°
2026-04-24 12:00 58.83725 5.63888 840 ft 109 kts 353°
2026-04-24 12:00 58.84438 5.63881 686 ft 103 kts 354°
2026-04-24 12:00 58.85150 5.63839 520 ft 98 kts 352°
2026-04-24 12:00 58.85821 5.63831 331 ft 101 kts 353°
2026-04-24 12:01 58.86585 5.63779 288 ft 118 kts 353°
2026-04-24 12:01 58.87372 5.63793 59 ft 108 kts 354°
2026-04-24 12:01 58.88017 5.63748 36 ft 67 kts 358°
2026-04-24 12:01 58.88315 5.63741 36 ft 31 kts 358°
2026-04-24 12:02 58.88526 5.63732 34 ft 31 kts 358°
2026-04-24 12:02 58.88685 5.63709 31 ft 9 kts 337°
2026-04-24 12:02 58.88709 5.63592 30 ft 9 kts 270°
2026-04-24 12:02 58.88701 5.63469 30 ft 10 kts 243°
2026-04-24 12:03 58.88628 5.63422 31 ft 13 kts 180°
2026-04-24 12:03 58.88538 5.63421 32 ft 15 kts 180°
2026-04-24 12:03 58.88420 5.63426 33 ft 19 kts 179°
2026-04-24 12:03 58.88326 5.63431 34 ft 7 kts 184°
2026-04-24 12:04 58.88277 5.63357 35 ft 12 kts 246°
2026-04-24 12:04 58.88252 5.63186 35 ft 14 kts 255°
2026-04-24 12:04 58.88245 5.63138 33 ft 3 kts 257°
2026-04-24 12:04 58.88241 5.63101 34 ft 0 kts 256°